Tracking 19792 objects as of 15-Jul-2019
HD Live streaming from Space Station
objects crossing your sky now

FLOCK 2K 26

Track FLOCK 2K 26 now!
10-day predictions
FLOCK 2K 26 is classified as:


NORAD ID: 42883
Int'l Code: 2017-042BL
Perigee: 444.8 km
Apogee: 462.6 km
Inclination: 96.9 °
Period: 93.5 minutes
Semi major axis: 6824 km
RCS: Unknown
Launch date: July 14, 2017
Source: United States (US)
Launch site: TYURATAM MISSILE AND SPACE COMPLEX (TTMTR)
aabbcc
Your satellite tracking list
Your tracking list is empty




NASA's NSSDC Master Catalog

Two Line Element Set (TLE):
1 42883U 17042BL  19196.14841756  .00003291  00000-0  84609-4 0  9997
2 42883  96.9374  77.7070 0013064 110.2671 249.9982 15.39854712112052
Source of the keplerian elements: AFSPC